This is the latest recevied weather packets stored in our database for station/object N3EG. If no packets are shown the sender has not sent any weather packets the latest 10 day(s).
| Time | Temp. | Humidity | Pressure | Rain* | Wind** | Luminosity | Snow |
|---|---|---|---|---|---|---|---|
| 1788561002 | 20.56° C | 62% | 1013.4 hPa | 0 mm | - | - | - |
| 1788560703 | 20.56° C | 62% | 1013.4 hPa | 0 mm | - | - | - |
| 1788560403 | 20.56° C | 61% | 1013.5 hPa | 0 mm | - | - | - |
| 1788560102 | 20.56° C | 61% | 1013.5 hPa | 0 mm | - | - | - |
| 1788559803 | 21.11° C | 60% | 1013.5 hPa | 0 mm | - | - | - |
| 1788559503 | 21.11° C | 61% | 1013.6 hPa | 0 mm | - | - | - |
| 1788559202 | 21.11° C | 60% | 1013.5 hPa | 0 mm | - | - | - |
| 1788558903 | 21.11° C | 59% | 1013.5 hPa | 0 mm | - | - | - |
| 1788558602 | 21.11° C | 60% | 1013.4 hPa | 0 mm | - | - | - |
| 1788558302 | 21.11° C | 60% | 1013.5 hPa | 0 mm | - | - | - |
| 1788558003 | 21.11° C | 60% | 1013.5 hPa | 0 mm | - | - | - |
| 1788557702 | 21.11° C | 61% | 1013.5 hPa | 0 mm | - | - | - |
| 1788557403 | 21.11° C | 61% | 1013.4 hPa | 0 mm | - | - | - |
| 1788557103 | 21.11° C | 63% | 1013.4 hPa | 0 mm | - | - | - |
| 1788556802 | 21.11° C | 60% | 1013.4 hPa | 0 mm | - | - | - |
| 1788556503 | 21.67° C | 60% | 1013.3 hPa | 0 mm | - | - | - |
| 1788556203 | 21.11° C | 64% | 1013.3 hPa | 0 mm | - | - | - |
| 1788555902 | 21.11° C | 61% | 1013.3 hPa | 0 mm | - | - | - |
| 1788555602 | 21.11° C | 63% | 1013.1 hPa | 0 mm | - | - | - |
| 1788555303 | 21.11° C | 64% | 1013.1 hPa | 0 mm | - | - | - |
| 1788555002 | 20.56° C | 64% | 1013.2 hPa | 0 mm | - | - | - |
| 1788554703 | 20.56° C | 63% | 1013.3 hPa | 0 mm | - | - | - |
| 1788554403 | 20° C | 63% | 1013.3 hPa | 0 mm | - | - | - |
| 1788554103 | 20° C | 63% | 1013.3 hPa | 0 mm | - | - | - |
| 1788553803 | 20° C | 67% | 1013.3 hPa | 0 mm | - | - | - |
* Rain latest hour (hover to see other rain measurements)
** Current wind speed in m/s (hover to see current wind gust speed)